Retour au catalogue

NOAA 16 DEB

ActifSSO
NORAD 41351·DEBRIS·🇺🇸 United States

Lancé Sep 21, 2000 depuis Vandenberg Space Force Base

Loading…

Prochains Passages (prochaines 24 heures)

TLE

FraisSource: Space-Track

Époque: Sep 13, 2026, 07:38 UTC

1 41351U 00055HU  26256.31837136  .00002005  00000-0  85119-3 0  9991
2 41351  98.6179 288.9604 0008045 249.7438 110.2878 14.26430518550952

Suivez NOAA 16 DEB en temps réel avec AllMySat

Download on the App Store